Location: Newark
(41.6500°N, 71.4833°W)
Time: 18:27:50
(UTC+00:00)

A-11 Canister half - Pass Details

Date: 23 January 2020
Orbit: 1517 x 1683 km, 47.2° (Epoch: 26 February)

Event Time Altitude Azimuth Distance (km) Brightness Sun altitude
Rises 05:22:20 0° 241° (WSW) 4,728 - -67.3°
Reaches altitude 10° 05:25:25 10° 241° (WSW) 3,727 - -67.1°
Maximum altitude 05:34:49 89° 157° (SSE) 1,528 - -66.5°
Drops below altitude 10° 05:44:07 10° 65° (ENE) 3,681 - -65.8°
Exits shadow 05:45:58 - 66° (ENE) 4,283 11.6 -65.6°
Sets 05:47:09 0° 66° (ENE) 4,668 11.8 -65.5°
